Year,Month,Day,Hour,Minute,Value (Times are PST for temperature in C)
2013,12,14,00,00,3.90
2013,12,14,00,01,3.90
2013,12,14,00,02,3.90
2013,12,14,00,03,3.90
2013,12,14,00,04,3.80
2013,12,14,00,05,3.80
2013,12,14,00,06,3.70
2013,12,14,00,07,3.80
2013,12,14,00,08,3.80
2013,12,14,00,09,3.80
2013,12,14,00,10,3.80
2013,12,14,00,11,3.80
2013,12,14,00,12,3.80
2013,12,14,00,13,3.80
2013,12,14,00,14,3.80
2013,12,14,00,15,3.80
2013,12,14,00,16,3.80
2013,12,14,00,17,3.80
2013,12,14,00,18,3.80
2013,12,14,00,19,3.80
2013,12,14,00,20,3.80
2013,12,14,00,21,3.80
2013,12,14,00,22,3.80
2013,12,14,00,23,3.80
2013,12,14,00,24,3.80
2013,12,14,00,25,3.80
2013,12,14,00,26,3.80
2013,12,14,00,27,3.80
2013,12,14,00,28,3.80
2013,12,14,00,29,3.80
2013,12,14,00,30,3.80
2013,12,14,00,31,3.80
2013,12,14,00,32,3.80
2013,12,14,00,33,3.80
2013,12,14,00,34,3.80
2013,12,14,00,35,3.80
2013,12,14,00,36,3.90
2013,12,14,00,37,3.90
2013,12,14,00,38,3.90
2013,12,14,00,39,3.90
2013,12,14,00,40,3.90
2013,12,14,00,41,3.90
2013,12,14,00,42,3.90
2013,12,14,00,43,3.90
2013,12,14,00,44,4.00
2013,12,14,00,45,4.00
2013,12,14,00,46,4.00
2013,12,14,00,47,4.00
2013,12,14,00,48,4.00
2013,12,14,00,49,4.10
2013,12,14,00,50,4.10
2013,12,14,00,51,4.10
2013,12,14,00,52,4.10
2013,12,14,00,53,4.10
2013,12,14,00,54,4.10
2013,12,14,00,55,4.10
2013,12,14,00,56,4.10
2013,12,14,00,57,4.00
2013,12,14,00,58,4.00
2013,12,14,00,59,3.90
2013,12,14,01,00,3.90
2013,12,14,01,01,3.90
2013,12,14,01,02,3.80
2013,12,14,01,03,3.70
2013,12,14,01,04,3.80
2013,12,14,01,05,3.80
2013,12,14,01,06,3.80
2013,12,14,01,07,3.80
2013,12,14,01,08,3.80
2013,12,14,01,09,3.80
2013,12,14,01,10,3.80
2013,12,14,01,11,3.80
2013,12,14,01,12,3.70
2013,12,14,01,13,3.70
2013,12,14,01,14,3.70
2013,12,14,01,15,3.70
2013,12,14,01,16,3.70
2013,12,14,01,17,3.70
2013,12,14,01,18,3.70
2013,12,14,01,19,3.70
2013,12,14,01,20,3.70
2013,12,14,01,21,3.70
2013,12,14,01,22,3.80
2013,12,14,01,23,3.80
2013,12,14,01,24,3.80
2013,12,14,01,25,3.80
2013,12,14,01,26,3.80
2013,12,14,01,27,3.80
2013,12,14,01,28,3.80
2013,12,14,01,29,3.90
2013,12,14,01,30,3.90
2013,12,14,01,31,3.90
2013,12,14,01,32,4.00
2013,12,14,01,33,4.00
2013,12,14,01,34,4.00
2013,12,14,01,35,4.00
2013,12,14,01,36,4.10
2013,12,14,01,37,4.10
2013,12,14,01,38,4.10
2013,12,14,01,39,4.10
2013,12,14,01,40,4.10
2013,12,14,01,41,4.10
2013,12,14,01,42,4.10
2013,12,14,01,43,4.10
2013,12,14,01,44,4.00
2013,12,14,01,45,4.00
2013,12,14,01,46,4.00
2013,12,14,01,47,4.00
2013,12,14,01,48,3.90
2013,12,14,01,49,3.90
2013,12,14,01,50,3.80
2013,12,14,01,51,3.80
2013,12,14,01,52,3.80
2013,12,14,01,53,3.80
2013,12,14,01,54,3.80
2013,12,14,01,55,3.80
2013,12,14,01,56,3.80
2013,12,14,01,57,3.70
2013,12,14,01,58,3.70
2013,12,14,01,59,3.70
2013,12,14,02,00,3.70
2013,12,14,02,01,3.70
2013,12,14,02,02,3.70
2013,12,14,02,03,3.70
2013,12,14,02,04,3.70
2013,12,14,02,05,3.70
2013,12,14,02,06,3.70
2013,12,14,02,07,3.70
2013,12,14,03,06,3.60
2013,12,14,03,07,3.60
2013,12,14,03,08,3.60
2013,12,14,03,09,3.60
2013,12,14,03,10,3.60
2013,12,14,03,11,3.60
2013,12,14,03,12,3.60
2013,12,14,03,13,3.60
2013,12,14,03,14,3.60
2013,12,14,03,15,3.60
2013,12,14,03,16,3.60
2013,12,14,03,17,3.60
2013,12,14,03,18,3.60
2013,12,14,03,19,3.60
2013,12,14,03,20,3.60
2013,12,14,03,21,3.60
2013,12,14,03,22,3.60
2013,12,14,03,23,3.50
2013,12,14,03,24,3.50
2013,12,14,03,25,3.40
2013,12,14,03,26,3.40
2013,12,14,03,27,3.40
2013,12,14,03,28,3.40
2013,12,14,03,29,3.40
2013,12,14,03,30,3.40
2013,12,14,03,31,3.40
2013,12,14,03,32,3.50
2013,12,14,03,33,3.50
2013,12,14,03,34,3.50
2013,12,14,03,35,3.50
2013,12,14,03,36,3.60
2013,12,14,03,37,3.60
2013,12,14,03,38,3.60
2013,12,14,03,39,3.50
2013,12,14,03,40,3.50
2013,12,14,03,41,3.50
2013,12,14,03,42,3.50
2013,12,14,03,43,3.50
2013,12,14,03,44,3.50
2013,12,14,03,45,3.50
2013,12,14,03,46,3.50
2013,12,14,03,47,3.50
2013,12,14,03,48,3.40
2013,12,14,03,49,3.50
2013,12,14,03,50,3.50
2013,12,14,03,51,3.60
2013,12,14,03,52,3.60
2013,12,14,03,53,3.60
2013,12,14,03,54,3.60
2013,12,14,03,55,3.60
2013,12,14,03,56,3.60
2013,12,14,03,57,3.60
2013,12,14,03,58,3.60
2013,12,14,03,59,3.60
2013,12,14,04,00,3.60
2013,12,14,04,01,3.60
2013,12,14,04,02,3.60
2013,12,14,04,03,3.60
2013,12,14,04,04,3.50
2013,12,14,04,05,3.50
2013,12,14,04,06,3.50
2013,12,14,04,07,3.50
2013,12,14,04,08,3.50
2013,12,14,04,09,3.60
2013,12,14,04,10,3.60
2013,12,14,04,11,3.60
2013,12,14,04,12,3.70
2013,12,14,04,13,3.70
2013,12,14,04,14,3.70
2013,12,14,04,15,3.70
2013,12,14,04,16,3.70
2013,12,14,04,17,3.60
2013,12,14,04,18,3.60
2013,12,14,04,19,3.60
2013,12,14,04,20,3.60
2013,12,14,04,21,3.60
2013,12,14,04,22,3.60
2013,12,14,04,23,3.60
2013,12,14,04,24,3.60
2013,12,14,04,25,3.60
2013,12,14,04,26,3.50
2013,12,14,04,27,3.50
2013,12,14,04,28,3.50
2013,12,14,04,29,3.50
2013,12,14,04,30,3.50
2013,12,14,04,31,3.50
2013,12,14,04,32,3.50
2013,12,14,04,33,3.50
2013,12,14,04,34,3.50
2013,12,14,04,35,3.50
2013,12,14,04,36,3.50
2013,12,14,04,37,3.60
2013,12,14,04,38,3.60
2013,12,14,04,39,3.60
2013,12,14,04,40,3.60
2013,12,14,04,41,3.70
2013,12,14,04,42,3.70
2013,12,14,04,43,3.70
2013,12,14,04,44,3.70
2013,12,14,04,45,3.80
2013,12,14,04,46,3.80
2013,12,14,04,47,3.80
2013,12,14,04,48,3.90
2013,12,14,04,49,3.90
2013,12,14,04,50,3.90
2013,12,14,04,51,3.90
2013,12,14,04,52,3.90
2013,12,14,04,53,3.90
2013,12,14,04,54,3.90
2013,12,14,04,55,3.90
2013,12,14,04,56,3.90
2013,12,14,04,57,3.90
2013,12,14,04,58,3.80
2013,12,14,04,59,3.80
2013,12,14,05,00,3.80
2013,12,14,05,01,3.80
2013,12,14,05,02,3.80
2013,12,14,05,03,3.70
2013,12,14,05,04,3.70
2013,12,14,05,05,3.70
2013,12,14,05,06,3.70
2013,12,14,05,07,3.70
2013,12,14,05,08,3.70
2013,12,14,05,09,3.70
2013,12,14,05,10,3.70
2013,12,14,05,11,3.70
2013,12,14,05,12,3.70
2013,12,14,05,13,3.70
2013,12,14,05,14,3.70
2013,12,14,05,15,3.70
2013,12,14,05,16,3.70
2013,12,14,05,17,3.70
2013,12,14,05,18,3.70
2013,12,14,05,19,3.70
2013,12,14,05,20,3.70
2013,12,14,05,21,3.70
2013,12,14,05,22,3.70
2013,12,14,05,23,3.70
2013,12,14,05,24,3.70
2013,12,14,09,54,4.00
2013,12,14,09,55,4.00
2013,12,14,09,56,4.00
2013,12,14,09,57,4.00
2013,12,14,09,58,4.00
2013,12,14,09,59,4.00
2013,12,14,10,00,4.10
2013,12,14,10,01,4.10
2013,12,14,10,02,4.10
2013,12,14,10,03,4.10
2013,12,14,10,04,4.10
2013,12,14,10,05,4.10
2013,12,14,10,06,4.10
2013,12,14,10,07,4.10
2013,12,14,10,08,4.10
2013,12,14,10,09,4.10
2013,12,14,10,10,4.10
2013,12,14,10,11,4.20
2013,12,14,10,12,4.20
2013,12,14,10,13,4.30
2013,12,14,10,14,4.30
2013,12,14,10,15,4.30
2013,12,14,10,16,4.30
2013,12,14,10,17,4.30
2013,12,14,10,18,4.40
2013,12,14,10,19,4.40
2013,12,14,10,20,4.40
2013,12,14,10,21,4.50
2013,12,14,10,22,4.50
2013,12,14,10,23,4.60
2013,12,14,10,24,4.60
2013,12,14,10,25,4.60
2013,12,14,10,26,4.70
2013,12,14,10,27,4.70
2013,12,14,10,28,4.70
2013,12,14,10,29,4.70
2013,12,14,10,30,4.70
2013,12,14,10,31,4.70
2013,12,14,10,32,4.70
2013,12,14,10,33,4.70
2013,12,14,10,34,4.70
2013,12,14,10,35,4.70
2013,12,14,10,36,4.70
2013,12,14,10,37,4.70
2013,12,14,10,38,4.70
2013,12,14,10,39,4.70
2013,12,14,10,40,4.70
2013,12,14,10,41,4.70
2013,12,14,10,42,4.70
2013,12,14,10,43,4.70
2013,12,14,10,44,4.80
2013,12,14,10,45,4.80
2013,12,14,10,46,4.80
2013,12,14,10,47,4.80
2013,12,14,10,48,4.80
2013,12,14,10,49,4.90
2013,12,14,10,50,4.90
2013,12,14,10,51,4.90
2013,12,14,10,52,4.90
2013,12,14,10,53,5.00
2013,12,14,10,54,5.00
2013,12,14,10,55,5.00
2013,12,14,10,56,5.10
2013,12,14,10,57,5.10
2013,12,14,10,58,5.10
2013,12,14,10,59,5.10
2013,12,14,11,00,5.10
2013,12,14,11,01,5.10
2013,12,14,11,02,5.10
2013,12,14,11,03,5.10
2013,12,14,11,04,5.10
2013,12,14,11,05,5.20
2013,12,14,11,06,5.20
2013,12,14,11,07,5.20
2013,12,14,11,08,5.20
2013,12,14,11,09,5.20
2013,12,14,11,10,5.20
2013,12,14,11,11,5.30
2013,12,14,11,12,5.30
2013,12,14,11,13,5.30
2013,12,14,11,14,5.30
2013,12,14,11,15,5.30
2013,12,14,11,16,5.30
2013,12,14,11,17,5.30
2013,12,14,11,18,5.30
2013,12,14,11,19,5.30
2013,12,14,11,20,5.30
2013,12,14,11,21,5.30
2013,12,14,11,22,5.30
2013,12,14,11,23,5.40
2013,12,14,11,24,5.40
2013,12,14,11,25,5.40
2013,12,14,11,26,5.40
2013,12,14,11,27,5.40
2013,12,14,11,28,5.50
2013,12,14,11,29,5.50
2013,12,14,11,30,5.50
2013,12,14,11,31,5.60
2013,12,14,11,32,5.60
2013,12,14,11,33,5.60
2013,12,14,11,34,5.70
2013,12,14,11,35,5.70
2013,12,14,11,36,5.80
2013,12,14,11,37,5.80
2013,12,14,11,38,5.80
2013,12,14,11,39,5.80
2013,12,14,11,40,5.80
2013,12,14,11,41,5.90
2013,12,14,11,42,5.90
2013,12,14,11,43,5.90
2013,12,14,11,44,5.90
2013,12,14,11,45,5.90
2013,12,14,11,46,5.90
2013,12,14,11,47,5.90
2013,12,14,11,48,5.90
2013,12,14,11,49,5.90
2013,12,14,11,50,5.90
2013,12,14,11,51,5.90
2013,12,14,11,52,5.90
2013,12,14,11,53,5.90
2013,12,14,11,54,5.90
2013,12,14,11,55,5.80
2013,12,14,11,56,5.80
2013,12,14,11,57,5.80
2013,12,14,11,58,5.80
2013,12,14,11,59,5.80
2013,12,14,12,00,5.80
2013,12,14,12,01,5.80
2013,12,14,12,02,5.70
2013,12,14,12,03,5.70
2013,12,14,12,04,5.70
2013,12,14,12,05,5.70
2013,12,14,12,06,5.70
2013,12,14,12,07,5.70
2013,12,14,12,08,5.70
2013,12,14,12,09,5.70
2013,12,14,12,10,5.70
2013,12,14,12,11,5.70
2013,12,14,12,12,5.70
2013,12,14,12,13,5.80
2013,12,14,12,14,5.70
2013,12,14,12,15,5.70
2013,12,14,12,16,5.70
2013,12,14,12,17,5.70
2013,12,14,12,18,5.70
2013,12,14,12,19,5.70
2013,12,14,12,20,5.70
2013,12,14,12,21,5.70
2013,12,14,12,22,5.70
2013,12,14,12,23,5.70
2013,12,14,12,24,5.70
2013,12,14,12,25,5.70
2013,12,14,12,26,5.70
2013,12,14,12,27,5.70
2013,12,14,12,28,5.70
2013,12,14,12,29,5.70
2013,12,14,12,30,5.70
2013,12,14,12,31,5.70
2013,12,14,12,32,5.70
2013,12,14,12,33,5.70
2013,12,14,12,34,5.70
2013,12,14,12,35,5.70
2013,12,14,12,36,5.70
2013,12,14,12,37,5.70
2013,12,14,12,38,5.70
2013,12,14,12,39,5.80
2013,12,14,12,40,5.80
2013,12,14,12,41,5.80
2013,12,14,12,42,5.80
2013,12,14,12,43,5.80
2013,12,14,12,44,5.80
2013,12,14,12,45,5.80
2013,12,14,12,46,5.80
2013,12,14,12,47,5.80
2013,12,14,12,48,5.80
2013,12,14,12,49,5.80
2013,12,14,12,50,5.80
2013,12,14,12,51,5.80
2013,12,14,12,52,5.80
2013,12,14,12,53,5.80
2013,12,14,12,54,5.80
2013,12,14,12,55,5.80
2013,12,14,12,56,5.80
2013,12,14,12,57,5.80
2013,12,14,12,58,5.90
2013,12,14,12,59,5.90
2013,12,14,13,00,5.90
2013,12,14,13,01,5.90
2013,12,14,13,02,5.90
2013,12,14,13,03,5.90
2013,12,14,13,04,5.90
2013,12,14,13,05,5.90
2013,12,14,13,06,6.00
2013,12,14,13,07,6.00
2013,12,14,13,08,6.00
2013,12,14,13,09,6.00
2013,12,14,13,10,6.00
2013,12,14,13,11,5.90
2013,12,14,13,12,5.90
2013,12,14,13,13,5.90
2013,12,14,13,14,5.90
2013,12,14,13,15,5.90
2013,12,14,13,16,5.90
2013,12,14,13,17,5.90
2013,12,14,13,18,5.90
2013,12,14,13,19,5.90
2013,12,14,13,20,5.90
2013,12,14,13,21,5.90
2013,12,14,13,22,5.90
2013,12,14,13,23,5.90
2013,12,14,13,24,5.90
2013,12,14,13,25,5.90
2013,12,14,13,26,5.90
2013,12,14,13,27,5.90
2013,12,14,13,28,5.90
2013,12,14,13,29,5.90
2013,12,14,13,30,5.90
2013,12,14,13,31,5.90
2013,12,14,13,32,5.90
2013,12,14,13,33,5.80
2013,12,14,13,34,5.80
2013,12,14,13,35,5.80
2013,12,14,13,36,5.80
2013,12,14,13,37,5.80
2013,12,14,13,38,5.80
2013,12,14,13,39,5.80
2013,12,14,13,40,5.80
2013,12,14,13,41,5.90
2013,12,14,13,42,5.90
2013,12,14,13,43,5.90
2013,12,14,13,44,5.90
2013,12,14,13,45,5.90
2013,12,14,13,46,5.90
2013,12,14,13,47,5.90
2013,12,14,13,48,5.90
2013,12,14,13,49,5.90
2013,12,14,13,50,5.90
2013,12,14,13,51,5.90
2013,12,14,13,52,5.90
2013,12,14,13,53,5.90
2013,12,14,13,54,5.90
2013,12,14,13,55,5.90
2013,12,14,13,56,5.90
2013,12,14,13,57,5.90
2013,12,14,13,58,5.90
2013,12,14,13,59,5.90
2013,12,14,14,00,5.90
2013,12,14,14,01,5.90
2013,12,14,14,02,5.90
2013,12,14,14,03,5.90
2013,12,14,14,04,5.90
2013,12,14,14,05,5.90
2013,12,14,14,06,5.90
2013,12,14,14,07,5.90
2013,12,14,14,08,5.90
2013,12,14,14,09,5.90
2013,12,14,14,10,5.90
2013,12,14,14,11,5.90
2013,12,14,14,12,5.90
2013,12,14,14,13,5.90
2013,12,14,14,14,5.90
2013,12,14,14,15,5.90
2013,12,14,14,16,5.90
2013,12,14,14,17,5.90
2013,12,14,14,18,5.90
2013,12,14,14,19,5.90
2013,12,14,14,20,5.90
2013,12,14,14,21,5.90
2013,12,14,14,22,5.90
2013,12,14,14,23,5.90
2013,12,14,14,24,5.90
2013,12,14,14,25,5.80
2013,12,14,14,26,5.80
2013,12,14,14,27,5.80
2013,12,14,14,28,5.80
2013,12,14,14,29,5.80
2013,12,14,14,30,5.80
2013,12,14,14,31,5.90
2013,12,14,14,32,5.90
2013,12,14,14,33,5.90
2013,12,14,14,34,5.90
2013,12,14,14,35,5.90
2013,12,14,14,36,5.90
2013,12,14,14,37,5.90
2013,12,14,14,38,5.90
2013,12,14,14,39,5.90
2013,12,14,14,40,5.90
2013,12,14,14,41,5.90
2013,12,14,14,42,5.90
2013,12,14,14,43,5.90
2013,12,14,14,44,5.90
2013,12,14,14,45,5.90
2013,12,14,14,46,5.90
2013,12,14,14,47,5.90
2013,12,14,14,48,5.90
2013,12,14,14,49,5.90
2013,12,14,14,50,5.90
2013,12,14,14,51,5.90
2013,12,14,14,52,5.90
2013,12,14,14,53,5.90
2013,12,14,14,54,5.90
2013,12,14,14,55,5.90
2013,12,14,14,56,5.90
2013,12,14,14,57,5.90
2013,12,14,14,58,5.90
2013,12,14,14,59,5.90
2013,12,14,15,00,5.90
2013,12,14,15,01,5.90
2013,12,14,15,02,5.90
2013,12,14,15,03,5.90
2013,12,14,15,04,5.90
2013,12,14,15,05,5.90
2013,12,14,15,06,5.90
2013,12,14,15,07,5.90
2013,12,14,15,08,5.90
2013,12,14,15,09,5.90
2013,12,14,15,10,5.90
2013,12,14,15,11,5.90
2013,12,14,15,12,5.90
2013,12,14,15,13,5.90
2013,12,14,15,14,5.90
2013,12,14,15,15,5.90
2013,12,14,15,16,5.90
2013,12,14,15,17,5.90
2013,12,14,15,18,5.90
2013,12,14,15,19,5.90
2013,12,14,15,20,5.90
2013,12,14,15,21,5.90
2013,12,14,15,22,5.90
2013,12,14,15,23,5.90
2013,12,14,15,24,5.90
2013,12,14,15,25,5.90
2013,12,14,15,26,5.90
2013,12,14,15,27,5.90
2013,12,14,15,28,5.90
2013,12,14,15,29,5.90
2013,12,14,15,30,5.90
2013,12,14,15,31,5.90
2013,12,14,15,32,5.90
2013,12,14,15,33,5.90
2013,12,14,15,34,5.90
2013,12,14,15,35,5.90
2013,12,14,15,36,5.90
2013,12,14,15,37,5.90
2013,12,14,15,38,5.90
2013,12,14,15,39,5.90
2013,12,14,15,40,5.90
2013,12,14,15,41,5.90
2013,12,14,15,42,5.90
2013,12,14,15,43,5.90
2013,12,14,15,44,5.90
2013,12,14,15,45,5.90
2013,12,14,15,46,5.90
2013,12,14,15,47,5.90
2013,12,14,15,48,5.90
2013,12,14,15,49,5.90
2013,12,14,15,50,5.90
2013,12,14,15,51,5.90
2013,12,14,15,52,5.90
2013,12,14,15,53,5.90
2013,12,14,15,54,5.90
2013,12,14,15,55,5.90
2013,12,14,15,56,5.90
2013,12,14,15,57,5.80
2013,12,14,15,58,5.80
2013,12,14,15,59,5.80
2013,12,14,16,00,5.80
2013,12,14,16,01,5.80
2013,12,14,16,02,5.80
2013,12,14,16,03,5.80
2013,12,14,16,04,5.80
2013,12,14,16,05,5.80
2013,12,14,16,06,5.80
2013,12,14,16,07,5.80
2013,12,14,16,08,5.80
2013,12,14,16,09,5.80
2013,12,14,16,10,5.80
2013,12,14,16,11,5.80
2013,12,14,16,12,5.80
2013,12,14,16,13,5.80
2013,12,14,16,14,5.80
2013,12,14,16,15,5.80
2013,12,14,16,16,5.80
2013,12,14,16,17,5.90
2013,12,14,16,18,5.90
2013,12,14,16,19,5.90
2013,12,14,16,20,5.90
2013,12,14,16,21,5.90
2013,12,14,16,22,5.90
2013,12,14,16,23,5.80
2013,12,14,16,24,5.80
2013,12,14,16,25,5.80
2013,12,14,16,26,5.80
2013,12,14,16,27,5.80
2013,12,14,16,28,5.80
2013,12,14,16,29,5.80
2013,12,14,16,30,5.80
2013,12,14,16,31,5.80
2013,12,14,16,32,5.80
2013,12,14,16,33,5.80
2013,12,14,16,34,5.80
2013,12,14,16,35,5.80
2013,12,14,16,36,5.80
2013,12,14,16,37,5.80
2013,12,14,16,38,5.80
2013,12,14,16,39,5.80
2013,12,14,16,40,5.80
2013,12,14,16,41,5.80
2013,12,14,16,42,5.80
2013,12,14,16,43,5.80
2013,12,14,16,44,5.80
2013,12,14,16,45,5.80
2013,12,14,16,46,5.70
2013,12,14,16,47,5.80
2013,12,14,16,48,5.80
2013,12,14,16,49,5.80
2013,12,14,16,50,5.80
2013,12,14,16,51,5.80
2013,12,14,16,52,5.80
2013,12,14,16,53,5.80
2013,12,14,16,54,5.80
2013,12,14,16,55,5.80
2013,12,14,16,56,5.80
2013,12,14,16,57,5.80
2013,12,14,16,58,5.80
2013,12,14,16,59,5.80
2013,12,14,17,00,5.80
2013,12,14,17,01,5.80
2013,12,14,17,02,5.80
2013,12,14,17,03,5.80
2013,12,14,17,04,5.80
2013,12,14,17,05,5.80
2013,12,14,17,06,5.80
2013,12,14,17,07,5.80
2013,12,14,17,08,5.80
2013,12,14,17,09,5.80
2013,12,14,17,10,5.80
2013,12,14,17,11,5.80
2013,12,14,17,12,5.80
2013,12,14,17,13,5.80
2013,12,14,17,14,5.80
2013,12,14,17,15,5.80
2013,12,14,17,16,5.80
2013,12,14,17,17,5.80
2013,12,14,17,18,5.80
2013,12,14,17,19,5.80
2013,12,14,17,20,5.80
2013,12,14,17,21,5.80
2013,12,14,17,22,5.80
2013,12,14,17,23,5.80
2013,12,14,17,24,5.80
2013,12,14,17,25,5.80
2013,12,14,17,26,5.80
2013,12,14,17,27,5.80
2013,12,14,17,28,5.80
2013,12,14,17,29,5.80
2013,12,14,17,30,5.80
2013,12,14,17,31,5.80
2013,12,14,17,32,5.80
2013,12,14,17,33,5.80
2013,12,14,17,34,5.80
2013,12,14,17,35,5.80
2013,12,14,17,36,5.80
2013,12,14,17,37,5.80
2013,12,14,17,38,5.80
2013,12,14,17,39,5.80
2013,12,14,17,40,5.80
2013,12,14,17,41,5.80
2013,12,14,17,42,5.80
2013,12,14,17,43,5.80
2013,12,14,17,44,5.80
2013,12,14,17,45,5.80
2013,12,14,17,46,5.80
2013,12,14,17,47,5.80
2013,12,14,17,48,5.80
2013,12,14,17,49,5.70
2013,12,14,17,50,5.70
2013,12,14,17,51,5.70
2013,12,14,17,52,5.70
2013,12,14,17,53,5.70
2013,12,14,17,54,5.70
2013,12,14,17,55,5.70
2013,12,14,17,56,5.60
2013,12,14,17,57,5.60
2013,12,14,17,58,5.60
2013,12,14,17,59,5.60
2013,12,14,18,00,5.60
2013,12,14,18,01,5.60
2013,12,14,18,02,5.60
2013,12,14,18,03,5.70
2013,12,14,18,04,5.70
2013,12,14,18,05,5.70
2013,12,14,18,06,5.70
2013,12,14,18,07,5.70
2013,12,14,18,08,5.70
2013,12,14,18,09,5.70
2013,12,14,18,10,5.70
2013,12,14,18,11,5.70
2013,12,14,18,12,5.70
2013,12,14,18,13,5.70
2013,12,14,18,14,5.70
2013,12,14,18,15,5.70
2013,12,14,18,16,5.70
2013,12,14,18,17,5.70
2013,12,14,18,18,5.70
2013,12,14,18,19,5.70
2013,12,14,18,20,5.70
2013,12,14,18,21,5.70
2013,12,14,18,22,5.70
2013,12,14,18,23,5.70
2013,12,14,18,24,5.70
2013,12,14,18,25,5.60
2013,12,14,18,26,5.60
2013,12,14,18,27,5.60
2013,12,14,18,28,5.60
2013,12,14,18,29,5.60
2013,12,14,18,30,5.60
2013,12,14,18,31,5.60
2013,12,14,18,32,5.60
2013,12,14,18,33,5.60
2013,12,14,18,34,5.60
2013,12,14,18,35,5.60
2013,12,14,18,36,5.60
2013,12,14,18,37,5.60
2013,12,14,18,38,5.60
2013,12,14,18,39,5.60
2013,12,14,18,40,5.60
2013,12,14,18,41,5.60
2013,12,14,18,42,5.60
2013,12,14,18,43,5.60
2013,12,14,18,44,5.60
2013,12,14,18,45,5.50
2013,12,14,18,46,5.50
2013,12,14,18,47,5.50
2013,12,14,18,48,5.50
2013,12,14,18,49,5.40
2013,12,14,18,50,5.40
2013,12,14,18,51,5.40
2013,12,14,18,52,5.40
2013,12,14,18,53,5.40
2013,12,14,18,54,5.40
2013,12,14,18,55,5.40
2013,12,14,18,56,5.40
2013,12,14,18,57,5.40
2013,12,14,18,58,5.40
2013,12,14,18,59,5.30
2013,12,14,19,00,5.30
2013,12,14,19,01,5.30
2013,12,14,19,02,5.30
2013,12,14,19,03,5.30
2013,12,14,19,04,5.30
2013,12,14,19,05,5.30
2013,12,14,19,06,5.30
2013,12,14,19,07,5.30
2013,12,14,19,08,5.20
2013,12,14,19,09,5.20
2013,12,14,19,10,5.30
2013,12,14,19,11,5.30
2013,12,14,19,12,5.30
2013,12,14,19,13,5.30
2013,12,14,19,14,5.30
2013,12,14,19,15,5.30
2013,12,14,19,16,5.30
2013,12,14,19,17,5.30
2013,12,14,19,18,5.30
2013,12,14,19,19,5.30
2013,12,14,19,20,5.30
2013,12,14,19,21,5.40
2013,12,14,19,22,5.40
2013,12,14,19,23,5.40
2013,12,14,19,24,5.40
2013,12,14,19,25,5.40
2013,12,14,19,26,5.50
2013,12,14,19,27,5.50
2013,12,14,19,28,5.60
2013,12,14,19,29,5.60
2013,12,14,19,30,5.60
2013,12,14,19,31,5.60
2013,12,14,19,32,5.60
2013,12,14,19,33,5.60
2013,12,14,19,34,5.60
2013,12,14,19,35,5.60
2013,12,14,19,36,5.60
2013,12,14,19,37,5.60
2013,12,14,19,38,5.60
2013,12,14,19,39,5.60
2013,12,14,19,40,5.60
2013,12,14,19,41,5.60
2013,12,14,19,42,5.60
2013,12,14,19,43,5.60
2013,12,14,19,44,5.60
2013,12,14,19,45,5.60
2013,12,14,19,46,5.60
2013,12,14,19,47,5.60
2013,12,14,19,48,5.60
2013,12,14,19,49,5.60
2013,12,14,19,50,5.60
2013,12,14,19,51,5.60
2013,12,14,19,52,5.60
2013,12,14,19,53,5.60
2013,12,14,19,54,5.60
2013,12,14,19,55,5.60
2013,12,14,19,56,5.60
2013,12,14,19,57,5.60
2013,12,14,19,58,5.60
2013,12,14,19,59,5.60
2013,12,14,20,00,5.60
2013,12,14,20,01,5.60
2013,12,14,20,02,5.60
2013,12,14,20,03,5.60
2013,12,14,20,04,5.60
2013,12,14,20,05,5.60
2013,12,14,20,06,5.60
2013,12,14,20,07,5.60
2013,12,14,20,08,5.60
2013,12,14,20,09,5.60
2013,12,14,20,10,5.60
2013,12,14,20,11,5.60
2013,12,14,20,12,5.60
2013,12,14,20,13,5.60
2013,12,14,20,14,5.60
2013,12,14,20,15,5.60
2013,12,14,20,16,5.60
2013,12,14,20,17,5.60
2013,12,14,20,18,5.60
2013,12,14,20,19,5.60
2013,12,14,20,20,5.60
2013,12,14,20,21,5.60
2013,12,14,20,22,5.60
2013,12,14,20,23,5.60
2013,12,14,20,24,5.60
2013,12,14,20,25,5.60
2013,12,14,20,26,5.60
2013,12,14,20,27,5.60
2013,12,14,20,28,5.60
2013,12,14,20,29,5.60
2013,12,14,20,30,5.60
2013,12,14,20,31,5.60
2013,12,14,20,32,5.60
2013,12,14,20,33,5.60
2013,12,14,20,34,5.60
2013,12,14,20,35,5.60
2013,12,14,20,36,5.50
2013,12,14,20,37,5.50
2013,12,14,20,38,5.50
2013,12,14,20,39,5.50
2013,12,14,20,40,5.50
2013,12,14,20,41,5.50
2013,12,14,20,42,5.50
2013,12,14,20,43,5.50
2013,12,14,20,44,5.40
2013,12,14,20,45,5.40
2013,12,14,20,46,5.40
2013,12,14,20,47,5.40
2013,12,14,20,48,5.40
2013,12,14,20,49,5.40
2013,12,14,20,50,5.40
2013,12,14,20,51,5.40
2013,12,14,20,52,5.40
2013,12,14,20,53,5.50
2013,12,14,20,54,5.50
2013,12,14,20,55,5.50
2013,12,14,20,56,5.50
2013,12,14,20,57,5.50
2013,12,14,20,58,5.50
2013,12,14,20,59,5.50
2013,12,14,21,00,5.50
2013,12,14,21,01,5.50
2013,12,14,21,02,5.50
2013,12,14,21,03,5.50
2013,12,14,21,04,5.50
2013,12,14,21,05,5.50
2013,12,14,21,06,5.50
2013,12,14,21,07,5.50
2013,12,14,21,08,5.50
2013,12,14,21,09,5.50
2013,12,14,21,10,5.50
2013,12,14,21,11,5.50
2013,12,14,21,12,5.50
2013,12,14,21,13,5.50
2013,12,14,21,14,5.50
2013,12,14,21,15,5.50
2013,12,14,21,16,5.50
2013,12,14,21,17,5.50
2013,12,14,21,18,5.50
2013,12,14,21,19,5.40
2013,12,14,21,20,5.40
2013,12,14,21,21,5.40
2013,12,14,21,22,5.40
2013,12,14,21,23,5.40
2013,12,14,21,24,5.40
2013,12,14,21,25,5.40
2013,12,14,21,26,5.40
2013,12,14,21,27,5.40
2013,12,14,21,28,5.40
2013,12,14,21,29,5.40
2013,12,14,21,30,5.40
2013,12,14,21,31,5.40
2013,12,14,21,32,5.40
2013,12,14,21,33,5.40
2013,12,14,21,34,5.40
2013,12,14,21,35,5.40
2013,12,14,21,36,5.40
2013,12,14,21,37,5.40
2013,12,14,21,38,5.40
2013,12,14,21,39,5.40
2013,12,14,21,40,5.40
2013,12,14,21,41,5.40
2013,12,14,21,42,5.40
2013,12,14,21,43,5.40
2013,12,14,21,44,5.40
2013,12,14,21,45,5.30
2013,12,14,21,46,5.40
2013,12,14,21,47,5.40
2013,12,14,21,48,5.30
2013,12,14,21,49,5.30
2013,12,14,21,50,5.30
2013,12,14,21,51,5.30
2013,12,14,21,52,5.30
2013,12,14,21,53,5.30
2013,12,14,21,54,5.30
2013,12,14,21,55,5.30
2013,12,14,21,56,5.30
2013,12,14,21,57,5.30
2013,12,14,21,58,5.30
2013,12,14,21,59,5.30
2013,12,14,22,00,5.30
2013,12,14,22,01,5.30
2013,12,14,22,02,5.30
2013,12,14,22,03,5.30
2013,12,14,22,04,5.30
2013,12,14,22,05,5.30
2013,12,14,22,06,5.30
2013,12,14,22,07,5.30
2013,12,14,22,08,5.30
2013,12,14,22,09,5.30
2013,12,14,22,10,5.30
2013,12,14,22,11,5.30
2013,12,14,22,12,5.30
2013,12,14,22,13,5.30
2013,12,14,22,14,5.30
2013,12,14,22,15,5.30
2013,12,14,22,16,5.30
2013,12,14,22,17,5.30
2013,12,14,22,18,5.30
2013,12,14,22,19,5.30
2013,12,14,22,20,5.30
2013,12,14,22,21,5.30
2013,12,14,22,22,5.30
2013,12,14,22,23,5.30
2013,12,14,22,24,5.30
2013,12,14,22,25,5.30
2013,12,14,22,26,5.30
2013,12,14,22,27,5.30
2013,12,14,22,28,5.30
2013,12,14,22,29,5.30
2013,12,14,22,30,5.30
2013,12,14,22,31,5.30
2013,12,14,22,32,5.30
2013,12,14,22,33,5.30
2013,12,14,22,34,5.30
2013,12,14,22,35,5.30
2013,12,14,22,36,5.30
2013,12,14,22,37,5.40
2013,12,14,22,38,5.40
2013,12,14,22,39,5.40
2013,12,14,22,40,5.40
2013,12,14,22,41,5.40
2013,12,14,22,42,5.40
2013,12,14,22,43,5.40
2013,12,14,22,44,5.30
2013,12,14,22,45,5.30
2013,12,14,22,46,5.30
2013,12,14,22,47,5.30
2013,12,14,22,48,5.30
2013,12,14,22,49,5.30
2013,12,14,22,50,5.30
2013,12,14,22,51,5.30
2013,12,14,22,52,5.30
2013,12,14,22,53,5.30
2013,12,14,22,54,5.30
2013,12,14,22,55,5.30
2013,12,14,22,56,5.30
2013,12,14,22,57,5.30
2013,12,14,22,58,5.30
2013,12,14,22,59,5.30
2013,12,14,23,00,5.30
2013,12,14,23,01,5.30
2013,12,14,23,02,5.30
2013,12,14,23,03,5.30
2013,12,14,23,04,5.30
2013,12,14,23,05,5.30
2013,12,14,23,06,5.30
2013,12,14,23,07,5.30
2013,12,14,23,08,5.30
2013,12,14,23,09,5.20
2013,12,14,23,10,5.20
2013,12,14,23,11,5.20
2013,12,14,23,12,5.20
2013,12,14,23,13,5.20
2013,12,14,23,14,5.20
2013,12,14,23,15,5.20
2013,12,14,23,16,5.20
2013,12,14,23,17,5.20
2013,12,14,23,18,5.30
2013,12,14,23,19,5.20
2013,12,14,23,20,5.20
2013,12,14,23,21,5.20
2013,12,14,23,22,5.20
2013,12,14,23,23,5.20
2013,12,14,23,24,5.20
2013,12,14,23,25,5.20
2013,12,14,23,26,5.20
2013,12,14,23,27,5.30
2013,12,14,23,28,5.30
2013,12,14,23,29,5.30
2013,12,14,23,30,5.30
2013,12,14,23,31,5.20
2013,12,14,23,32,5.20
2013,12,14,23,33,5.20